Location: Cheching
(60.0667°N, 164.2167°W)
Time: 21:45:45
(UTC+00:00)

NOAA 15 - Pass Details

Date: 29 January 2021
Orbit: 798 x 812 km, 98.7° (Epoch: 07 March)

Event Time Altitude Azimuth Distance (km) Brightness Sun altitude
Rises 17:44:18 0° 20° (NNE) 3,347 7.9 -11.1°
Reaches altitude 10° 17:47:01 10° 33° (NNE) 2,413 7.3 -10.8°
Maximum altitude 17:51:31 27° 91° (E) 1,516 7.0 -10.3°
Drops below altitude 10° 17:56:01 10° 148° (SSE) 2,401 7.9 -9.7°
Sets 17:58:42 0° 161° (SSE) 3,328 8.4 -9.4°
